Waarnemingen

Advertentie
Mijn weer
Hastveda, Zweden (2629): temperatuur & dauwpunt: 18.10.2017 05:00:00 - 24.10.2017 05:00:00 (CEST)Hastveda, Zweden (2629): windsnelheid & windstoten: 18.10.2017 05:00:00 - 24.10.2017 05:00:00 (CEST)Hastveda, Zweden (2629): windrichting: 18.10.2017 05:00:00 - 24.10.2017 05:00:00 (CEST)Hastveda, Zweden (2629): luchtdruk: 18.10.2017 05:00:00 - 24.10.2017 05:00:00 (CEST)Hastveda, Zweden (2629): zicht: 18.10.2017 05:00:00 - 24.10.2017 05:00:00 (CEST)Hastveda, Zweden (2629): neerslag: 18.10.2017 05:00:00 - 24.10.2017 05:00:00 (CEST)
Datum & Tijd tt [°C] td [°C] ff [km/u] ff [kn] fx [km/u] fx [kn] dd ppp [hPa] vv [km] rr [mm]
24.10.2017 05:00:00 4,6 2,1 11 6 18 10 ONO 1024,6 50 0,0
24.10.2017 04:00:00 4,6 2,1 11 6 18 10 ONO 1024,6 50 0,0
24.10.2017 03:00:00 4,5 2,4 11 6 22 12 ONO 1024,4 50 0,0
24.10.2017 02:00:00 4,7 2,1 11 6 22 12 ONO 1024,1 50 0,0
24.10.2017 01:00:00 4,8 2,3 11 6 25 14 ONO 1024,0 50 0,0
24.10.2017 00:00:00 4,6 2,5 14 8 25 14 ONO 1023,3 50 0,0
23.10.2017 23:00:00 4,4 2,4 11 6 25 14 ONO 1022,8 50 0,0
23.10.2017 22:00:00 4,4 2,7 11 6 22 12 ONO 1023,2 50 0,0
23.10.2017 21:00:00 4,6 3,1 11 6 25 14 ONO 1022,9 50 0,0
23.10.2017 20:00:00 4,9 3,7 11 6 25 14 ONO 1022,6 45 0,0
23.10.2017 19:00:00 5,1 4,2 11 6 25 14 ONO 1021,6 50 0,0
23.10.2017 18:00:00 5,3 4,9 14 8 29 16 ONO 1021,0 30 0,0
23.10.2017 17:00:00 5,9 5,5 14 8 29 16 NO 1020,3 12 0,0
23.10.2017 16:00:00 6,3 5,9 11 6 25 14 ONO 1019,4 15 0,0
23.10.2017 15:00:00 7,0 6,6 14 8 32 18 ONO 1018,5 30 0,1
23.10.2017 14:00:00 7,2 6,9 14 8 32 18 ONO 1017,9 40 0,0
23.10.2017 13:00:00 7,3 7,2 14 8 29 16 ONO 1017,4 45 0,0
23.10.2017 12:00:00 7,6 7,5 14 8 32 18 ONO 1016,6 40 0,0
23.10.2017 11:00:00 7,6 7,5 14 8 32 18 ONO 1015,9 45 0,0
23.10.2017 10:00:00 8,1 8,0 14 8 29 16 ONO 1015,0 24 0,0
23.10.2017 09:00:00 8,0 7,9 7 4 14 8 ONO 1014,3 2,5 0,0
23.10.2017 08:00:00 7,6 7,5 7 4 14 8 NO 1013,5 1,9 0,0
23.10.2017 07:00:00 7,4 7,3 7 4 14 8 NO 1012,9 2,5 0,0
23.10.2017 06:00:00 7,4 7,3 0 0 7 4 N 1012,4 0,3 0,0
23.10.2017 05:00:00 7,4 7,3 4 2 7 4 O 1012,0 0,2 0,0
23.10.2017 04:00:00 7,2 7,1 0 0 7 4 N 1011,5 0,2 0,0
23.10.2017 03:00:00 6,8 6,7 4 2 4 2 OZO 1011,2 0,4 0,0
23.10.2017 02:00:00 7,6 7,5 0 0 4 2 N 1011,0 0,2 0,0
23.10.2017 01:00:00 7,7 7,6 0 0 4 2 N 1010,9 0,1 0,0
23.10.2017 00:00:00 8,5 8,4 4 2 4 2 Z 1010,8 2,4 0,0
22.10.2017 23:00:00 8,2 8,1 4 2 4 2 NNO 1010,4 0,8 0,0
22.10.2017 22:00:00 8,6 8,5 0 0 4 2 N 1010,0 0,4 0,0
22.10.2017 21:00:00 9,0 8,9 4 2 4 2 N 1009,8 1,0 0,1
22.10.2017 20:00:00 9,1 9,0 4 2 7 4 O 1009,7 1,4 0,8
22.10.2017 19:00:00 9,2 9,1 4 2 4 2 ZZO 1009,4 1,3 0,0
22.10.2017 18:00:00 9,3 9,2 0 0 7 4 N 1009,1 2,9 0,2
22.10.2017 17:00:00 9,2 9,1 4 2 11 6 O 1008,9 2,4 1,0
22.10.2017 16:00:00 9,0 8,9 7 4 18 10 OZO 1009,0 2,6 2,0
22.10.2017 15:00:00 9,3 9,2 7 4 22 12 OZO 1009,1 2,3 3,0
22.10.2017 14:00:00 9,8 9,7 7 4 14 8 O 1009,3 1,2 3,0
22.10.2017 13:00:00 9,7 9,6 4 2 14 8 O 1009,5 1,4 2,0
22.10.2017 12:00:00 9,7 9,6 7 4 14 8 OZO 1010,0 2,1 2,0
22.10.2017 11:00:00 9,9 9,7 7 4 18 10 ZO 1010,4 1,5 2,0
22.10.2017 10:00:00 10,0 9,8 7 4 18 10 OZO 1010,5 1,5 2,0
22.10.2017 09:00:00 10,0 9,8 11 6 18 10 ZO 1010,9 1,6 4,0
22.10.2017 08:00:00 9,9 9,7 11 6 18 10 O 1010,7 0,9 5,0
22.10.2017 07:00:00 9,8 9,7 7 4 22 12 O 1011,0 1,1 0,3
22.10.2017 06:00:00 9,6 9,5 7 4 25 14 O 1011,6 1,2 0,1
22.10.2017 05:00:00 9,2 9,1 14 8 25 14 O 1012,2 7 0,6
22.10.2017 04:00:00 9,2 9,1 14 8 32 18 O 1012,6 4,4 0,0
22.10.2017 03:00:00 9,2 9,1 14 8 32 18 O 1012,9 8 0,0
22.10.2017 02:00:00 9,2 9,1 14 8 29 16 O 1013,2 8 0,1
22.10.2017 01:00:00 9,2 9,1 14 8 29 16 O 1014,0 5 0,6
22.10.2017 00:00:00 9,2 9,1 18 10 40 21 O 1014,4 6 1,0
21.10.2017 23:00:00 9,3 9,2 14 8 36 19 OZO 1014,7 11 0,0
21.10.2017 22:00:00 9,2 9,1 18 10 36 19 O 1014,5 14 0,0
21.10.2017 21:00:00 8,9 8,8 14 8 32 18 O 1014,6 8 0,3
21.10.2017 20:00:00 8,7 8,6 18 10 29 16 O 1015,1 14 0,0
21.10.2017 19:00:00 8,7 8,6 14 8 32 18 O 1015,0 8 0,0
21.10.2017 18:00:00 8,7 8,6 14 8 32 18 O 1015,1 4,8 0,3
21.10.2017 17:00:00 8,9 8,8 14 8 32 18 ONO 1014,9 6 0,1
21.10.2017 16:00:00 9,4 9,3 11 6 36 19 ONO 1014,9 6 0,0
21.10.2017 15:00:00 9,8 9,7 14 8 32 18 ONO 1014,9 7 0,1
21.10.2017 14:00:00 10,0 9,8 14 8 32 18 O 1014,5 9 0,0
21.10.2017 13:00:00 10,1 9,9 14 8 29 16 ONO 1014,7 6 0,0
21.10.2017 12:00:00 10,1 9,9 14 8 25 14 ONO 1014,8 5 0,0
21.10.2017 11:00:00 9,8 9,7 11 6 25 14 ONO 1014,5 4,5 0,1
21.10.2017 10:00:00 9,5 9,4 14 8 25 14 NO 1014,3 6 0,0
21.10.2017 09:00:00 9,3 9,2 11 6 22 12 NO 1014,2 8 0,1
21.10.2017 08:00:00 9,3 9,2 11 6 22 12 ONO 1013,9 5 0,2
21.10.2017 07:00:00 9,4 9,3 11 6 25 14 ONO 1013,6 3,2 0,1
21.10.2017 06:00:00 9,7 9,6 11 6 22 12 ONO 1013,5 3,5 0,1
21.10.2017 05:00:00 9,9 9,7 11 6 18 10 ONO 1013,7 3,1 0,3
21.10.2017 04:00:00 10,1 9,9 11 6 18 10 ONO 1013,9 3,0 0,6
21.10.2017 03:00:00 10,2 10,0 11 6 25 14 O 1013,9 2,8 2,0
21.10.2017 02:00:00 10,3 10,1 14 8 29 16 ONO 1013,9 2,2 3,0
21.10.2017 01:00:00 10,3 10,1 14 8 22 12 ONO 1014,4 1,4 3,0
21.10.2017 00:00:00 10,3 10,1 7 4 22 12 O 1015,0 1,3 1,0
20.10.2017 23:00:00 10,3 10,1 11 6 18 10 O 1014,7 1,4 1,0
20.10.2017 22:00:00 10,4 10,2 11 6 25 14 O 1014,7 1,6 0,9
20.10.2017 21:00:00 10,5 10,3 11 6 25 14 O 1014,5 2,0 0,4
20.10.2017 20:00:00 10,7 10,4 11 6 29 16 O 1014,7 2,4 0,0
20.10.2017 19:00:00 10,6 10,3 14 8 29 16 O 1014,7 3,2 0,0
20.10.2017 18:00:00 10,7 10,2 14 8 25 14 O 1014,8 6 0,0
20.10.2017 17:00:00 10,9 10,1 11 6 29 16 O 1014,9 7 0,1
20.10.2017 16:00:00 11,1 10,2 18 10 29 16 O 1014,8 8 0,0
20.10.2017 15:00:00 11,3 10,2 14 8 29 16 O 1015,0 8 0,0
20.10.2017 14:00:00 11,4 10,1 11 6 25 14 O 1015,5 8 0,0
20.10.2017 13:00:00 11,4 9,8 14 8 29 16 O 1015,5 9 0,0
20.10.2017 12:00:00 11,4 10,1 11 6 29 16 O 1015,5 9 0,0
20.10.2017 11:00:00 11,1 10,0 14 8 29 16 OZO 1015,9 13 0,0
20.10.2017 10:00:00 10,8 10,0 11 6 25 14 O 1015,9 12 0,0
20.10.2017 09:00:00 10,5 10,0 11 6 25 14 O 1015,8 13 0,0
20.10.2017 08:00:00 10,2 9,6 11 6 25 14 O 1015,9 20 0,0
20.10.2017 07:00:00 10,1 9,3 14 8 25 14 O 1015,8 30 0,0
20.10.2017 06:00:00 9,9 9,0 14 8 25 14 O 1016,1 45 0,0
20.10.2017 05:00:00 9,8 8,9 11 6 25 14 O 1016,4 45 0,0
20.10.2017 04:00:00 9,7 8,6 14 8 25 14 O 1016,8 45 0,0
20.10.2017 03:00:00 9,5 8,6 11 6 25 14 O 1017,3 45 0,0
20.10.2017 02:00:00 9,3 8,5 11 6 25 14 O 1017,9 50 0,0
20.10.2017 01:00:00 9,1 8,3 11 6 25 14 O 1018,2 45 0,1
20.10.2017 00:00:00 9,2 8,0 11 6 25 14 O 1018,3 50 0,0
19.10.2017 23:00:00 9,0 7,8 14 8 29 16 O 1018,8 50 0,0
19.10.2017 22:00:00 8,8 7,4 14 8 29 16 O 1018,7 50 0,0
19.10.2017 21:00:00 8,9 7,2 11 6 25 14 O 1018,7 50 0,0
19.10.2017 20:00:00 9,3 7,2 14 8 25 14 O 1018,8 45 0,0
19.10.2017 19:00:00 9,7 8,1 14 8 25 14 O 1018,6 45 0,0
19.10.2017 18:00:00 9,9 8,3 11 6 32 18 O 1018,6 50 0,0
19.10.2017 17:00:00 10,3 8,6 14 8 25 14 O 1018,7 45 0,0
19.10.2017 16:00:00 10,5 8,3 11 6 29 16 O 1018,8 50 0,0
19.10.2017 15:00:00 10,4 7,6 14 8 29 16 O 1018,8 45 0,0
19.10.2017 14:00:00 9,6 9,1 11 6 18 10 O 1019,2 30 0,1
19.10.2017 13:00:00 9,4 9,3 7 4 22 12 O 1019,4 35 0,0
19.10.2017 12:00:00 9,0 8,9 7 4 18 10 O 1019,4 9 0,0
19.10.2017 11:00:00 8,4 8,3 7 4 18 10 O 1019,5 16 0,0
19.10.2017 10:00:00 7,9 7,8 7 4 14 8 O 1019,3 12 0,2
19.10.2017 09:00:00 7,4 7,3 7 4 11 6 ONO 1019,1 4,7 0,9
19.10.2017 08:00:00 7,5 7,4 4 2 11 6 ONO 1018,5 22 0,0
19.10.2017 07:00:00 7,5 7,2 7 4 11 6 ONO 1018,0 9 0,2
19.10.2017 06:00:00 7,5 7,2 4 2 18 10 O 1018,3 45 0,0
19.10.2017 05:00:00 7,5 7,4 11 6 18 10 ONO 1018,1 45 0,0
19.10.2017 04:00:00 7,7 7,6 11 6 22 12 ONO 1017,9 45 0,0
19.10.2017 03:00:00 9,0 8,9 11 6 22 12 O 1017,7 30 0,1
19.10.2017 02:00:00 9,9 9,7 7 4 18 10 O 1017,6 5 0,4
19.10.2017 01:00:00 10,1 9,9 7 4 14 8 O 1017,3 4,4 0,2
19.10.2017 00:00:00 10,5 10,2 7 4 14 8 O 1017,2 17 0,3
18.10.2017 23:00:00 10,8 10,5 11 6 14 8 ONO 1016,9 45 0,0
18.10.2017 22:00:00 10,8 10,5 4 2 7 4 N 1016,6 40 0,0
18.10.2017 21:00:00 10,6 10,3 4 2 7 4 NNW 1016,3 45 0,0
18.10.2017 20:00:00 10,5 10,0 4 2 7 4 WNW 1015,8 45 0,0
18.10.2017 19:00:00 10,8 10,3 7 4 11 6 W 1015,4 50 0,0
18.10.2017 18:00:00 11,5 10,7 7 4 11 6 W 1015,1 50 0,0
18.10.2017 17:00:00 12,3 10,9 7 4 14 8 W 1014,8 27 0,0
18.10.2017 16:00:00 13,0 10,7 7 4 14 8 WZW 1014,4 50 0,0
18.10.2017 15:00:00 13,3 10,1 11 6 14 8 W 1014,3 50 0,0
18.10.2017 14:00:00 13,0 10,5 7 4 18 10 WNW 1014,1 45 0,0
18.10.2017 13:00:00 12,7 10,6 11 6 18 10 WNW 1014,0 50 0,0
18.10.2017 12:00:00 12,6 11,2 7 4 22 12 W 1013,6 50 0,0
18.10.2017 11:00:00 11,8 11,3 7 4 14 8 W 1013,6 45 0,0
18.10.2017 10:00:00 11,0 10,7 7 4 18 10 WZW 1013,1 19 0,2
18.10.2017 09:00:00 10,4 10,1 11 6 22 12 ZW 1012,5 7 0,6
18.10.2017 08:00:00 10,4 9,8 11 6 22 12 WZW 1012,0 7 0,2
18.10.2017 07:00:00 11,1 9,5 11 6 25 14 WZW 1011,6 14 0,0
18.10.2017 06:00:00 11,3 9,2 14 8 32 18 WZW 1011,4 17 0,0
18.10.2017 05:00:00 11,4 9,3 18 10 32 18 WZW 1011,1 16 0,0

tt = temperatuur
td = dauwpunt
ff = windsnelheid
fx = windstoten
dd = windrichting
ppp = luchtdruk
vv = zicht
rr = neerslag

Weerstations in de omgeving